Date String (YYYY-MM-DD hh:mm:ss) UTC,Instrument flags,Ambient pressure (hPa),Sample flow (lpm),Bypass flow (lpm),Sample temperature (°C),Ambient temperature (°C),ASC tube jacket temperature (°C),LED temperature (°C),Box temperature (°C),Sample RH (%),Span deviation,Mass concentration (μg/m³),Mass concentration (μg/m³),Mass concentration (μg/m³)
DateTimeUTC,F1_M11,P_M11,Q1_M11,Q2_M11,T1_M11,T2_M11,T3_M11,T4_M11,T5_M11,U1_M11,ZSPAN_M11,X0_M11,X2_M11,X1_M11
2022-10-30 05:00:00,,0829.3,4.99,0.00,26.3,24.6,00.0,35.2,28.0,08.3,0000.0,0006.67,0004.04,0003.79
2022-10-30 05:01:00,,0829.3,5.01,0.00,26.3,24.6,00.0,35.2,28.1,08.3,0000.0,0006.70,0004.06,0003.81
2022-10-30 05:02:00,,0829.3,4.99,0.00,26.3,24.6,00.0,35.2,28.1,08.3,0000.0,0006.40,0004.06,0003.81
2022-10-30 05:03:00,,0829.3,5.01,0.00,26.3,24.6,00.0,35.2,28.0,08.3,0000.0,0006.45,0004.07,0003.81
2022-10-30 05:04:00,,0829.3,4.98,0.00,26.3,24.6,00.0,35.2,28.1,08.3,0000.0,0006.39,0004.06,0003.80
2022-10-30 05:05:00,,0829.3,5.01,0.00,26.3,24.6,00.0,35.2,28.1,08.3,0000.0,0006.44,0004.07,0003.79
2022-10-30 05:06:00,,0829.2,4.99,0.00,26.3,24.5,00.0,35.2,28.1,08.3,0000.0,0006.59,0004.07,0003.79
2022-10-30 05:07:00,,0829.3,5.02,0.00,26.3,24.6,00.0,35.2,28.0,08.3,0000.0,0007.54,0004.05,0003.77
2022-10-30 05:08:00,,0829.3,4.98,0.00,26.3,24.5,00.0,35.2,28.0,08.3,0000.0,0007.50,0004.02,0003.77
2022-10-30 05:09:00,,0829.2,5.01,0.00,26.3,24.5,00.0,35.2,28.0,08.3,0000.0,0007.39,0003.99,0003.75
2022-10-30 05:10:00,,0829.2,5.01,0.00,26.3,24.5,00.0,35.2,28.0,08.3,0000.0,0007.35,0003.96,0003.73
2022-10-30 05:11:00,,0829.2,5.01,0.00,26.2,24.5,00.0,35.2,28.0,08.3,0000.0,0007.30,0003.96,0003.73
2022-10-30 05:12:00,,0829.2,4.98,0.00,26.2,24.5,00.0,35.2,28.0,08.3,0000.0,0007.59,0003.95,0003.72
2022-10-30 05:13:00,,0829.2,5.01,0.00,26.2,24.5,00.0,35.1,28.0,08.3,0000.0,0007.84,0003.95,0003.72
2022-10-30 05:14:00,,0829.3,5.01,0.00,26.2,24.5,00.0,35.1,28.0,08.4,0000.0,0008.11,0003.96,0003.72
2022-10-30 05:15:00,,0829.3,4.98,0.00,26.2,24.5,00.0,35.1,28.0,08.4,0000.0,0008.56,0003.99,0003.72
2022-10-30 05:16:00,,0829.2,5.01,0.00,26.2,24.5,00.0,35.1,28.0,08.4,0000.0,0008.95,0003.97,0003.72
2022-10-30 05:17:00,,0829.3,4.99,0.00,26.2,24.5,00.0,35.1,27.9,08.4,0000.0,0008.99,0003.98,0003.71
2022-10-30 05:18:00,,0829.3,5.00,0.00,26.2,24.5,00.0,35.1,27.9,08.4,0000.0,0008.38,0003.97,0003.71
2022-10-30 05:19:00,,0829.2,5.01,0.00,26.2,24.5,00.0,35.1,27.9,08.4,0000.0,0008.70,0003.97,0003.71
2022-10-30 05:20:00,,0829.2,4.98,0.00,26.2,24.5,00.0,35.1,28.0,08.4,0000.0,0008.80,0003.97,0003.71
2022-10-30 05:21:00,,0829.2,5.01,0.00,26.2,24.5,00.0,35.1,28.0,08.4,0000.0,0009.06,0004.01,0003.72
2022-10-30 05:22:00,,0829.2,5.01,0.00,26.2,24.5,00.0,35.1,27.9,08.4,0000.0,0009.26,0004.00,0003.72
2022-10-30 05:23:00,,0829.2,4.98,0.00,26.2,24.5,00.0,35.1,27.9,08.4,0000.0,0008.93,0003.98,0003.71
2022-10-30 05:24:00,,0829.3,5.01,0.00,26.2,24.5,00.0,35.1,27.9,08.4,0000.0,0008.75,0003.97,0003.71
2022-10-30 05:25:00,,0829.2,5.01,0.00,26.2,24.5,00.0,35.1,27.9,08.5,0000.0,0008.45,0003.94,0003.69
2022-10-30 05:26:00,,0829.2,5.01,0.00,26.2,24.5,00.0,35.1,28.0,08.5,0000.0,0008.09,0003.92,0003.69
2022-10-30 05:27:00,,0829.2,5.00,0.00,26.2,24.5,00.0,35.0,28.0,09.0,0000.0,0007.69,0003.91,0003.67
2022-10-30 05:28:00,,0829.3,5.01,0.00,26.2,24.6,00.0,35.0,28.0,09.1,0000.0,0008.00,0003.87,0003.65
2022-10-30 05:29:00,,0829.2,4.99,0.00,26.2,24.6,00.0,35.0,28.0,09.0,0000.0,0008.12,0003.86,0003.64
2022-10-30 05:30:00,,0829.3,5.01,0.00,26.2,24.6,00.0,35.0,28.0,08.4,0000.0,0007.90,0003.88,0003.63
2022-10-30 05:31:00,,0829.4,4.98,0.00,26.2,24.6,00.0,35.0,28.0,08.7,0000.0,0007.75,0003.88,0003.62
2022-10-30 05:32:00,,0829.4,5.00,0.00,26.2,24.6,00.0,35.0,28.1,09.1,0000.0,0007.79,0003.89,0003.63
2022-10-30 05:33:00,,0829.3,5.00,0.00,26.2,24.7,00.0,35.0,28.1,09.2,0000.0,0007.62,0003.90,0003.64
2022-10-30 05:34:00,,0829.3,5.01,0.00,26.2,24.7,00.0,35.0,28.1,09.1,0000.0,0007.83,0003.92,0003.64
2022-10-30 05:35:00,,0829.3,4.99,0.00,26.2,24.7,00.0,35.0,28.1,08.8,0000.0,0008.32,0003.96,0003.64
2022-10-30 05:36:00,,0829.3,5.01,0.00,26.2,24.7,00.0,35.0,28.1,08.8,0000.0,0008.49,0003.97,0003.65
2022-10-30 05:37:00,,0829.3,4.99,0.00,26.2,24.7,00.0,35.1,28.1,08.7,0000.0,0008.49,0003.97,0003.63
2022-10-30 05:38:00,,0829.3,5.01,0.00,26.2,24.7,00.0,35.1,28.1,08.6,0000.0,0008.58,0003.96,0003.61
2022-10-30 05:39:00,,0829.3,4.99,0.00,26.3,24.7,00.0,35.1,28.2,08.7,0000.0,0008.65,0003.99,0003.61
2022-10-30 05:40:00,,0829.3,5.02,0.00,26.3,24.8,00.0,35.1,28.2,08.7,0000.0,0009.19,0003.98,0003.59
2022-10-30 05:41:00,,0829.3,4.98,0.00,26.3,24.8,00.0,35.1,28.2,08.7,0000.0,0009.82,0003.96,0003.58
2022-10-30 05:42:00,,0829.2,5.01,0.00,26.3,24.8,00.0,35.1,28.2,08.8,0000.0,0010.89,0003.94,0003.56
2022-10-30 05:43:00,,0829.2,4.98,0.00,26.3,24.8,00.0,35.1,28.2,08.9,0000.0,0011.35,0003.94,0003.54
2022-10-30 05:44:00,,0829.2,5.01,0.00,26.3,24.8,00.0,35.1,28.2,08.9,0000.0,0011.49,0003.93,0003.52
2022-10-30 05:45:00,,0829.3,5.01,0.00,26.3,24.8,00.0,35.1,28.2,08.8,0000.0,0012.39,0003.92,0003.48
2022-10-30 05:46:00,,0829.3,4.99,0.00,26.3,24.8,00.0,35.1,28.2,08.8,0000.0,0012.37,0003.90,0003.47
2022-10-30 05:47:00,,0829.3,5.01,0.00,26.3,24.8,00.0,35.1,28.2,08.8,0000.0,0012.60,0003.90,0003.46
2022-10-30 05:48:00,,0829.2,4.99,0.00,26.3,24.8,00.0,35.1,28.2,08.8,0000.0,0012.78,0003.94,0003.45
2022-10-30 05:49:00,,0829.3,5.01,0.00,26.3,24.8,00.0,35.1,28.2,08.8,0000.0,0013.14,0003.98,0003.47
2022-10-30 05:50:00,,0829.2,4.98,0.00,26.3,24.8,00.0,35.1,28.2,08.8,0000.0,0013.55,0004.02,0003.48
2022-10-30 05:51:00,,0829.2,5.01,0.00,26.3,24.7,00.0,35.1,28.2,08.7,0000.0,0013.40,0004.08,0003.48
2022-10-30 05:52:00,,0829.2,4.98,0.00,26.3,24.7,00.0,35.1,28.2,08.7,0000.0,0013.05,0004.13,0003.49
2022-10-30 05:53:00,,0829.3,5.01,0.00,26.3,24.7,00.0,35.1,28.2,08.7,0000.0,0012.47,0004.18,0003.51
2022-10-30 05:54:00,,0829.2,4.99,0.00,26.3,24.7,00.0,35.1,28.1,08.7,0000.0,0011.94,0004.19,0003.52
2022-10-30 05:55:00,,0829.2,5.00,0.00,26.3,24.7,00.0,35.1,28.2,08.7,0000.0,0011.75,0004.16,0003.52
2022-10-30 05:56:00,,0829.2,5.02,0.00,26.3,24.7,00.0,35.1,28.1,08.6,0000.0,0011.90,0004.16,0003.53
2022-10-30 05:57:00,,0829.2,4.99,0.00,26.3,24.7,00.0,35.1,28.1,08.6,0000.0,0011.17,0004.18,0003.54
2022-10-30 05:58:00,,0829.3,5.01,0.00,26.3,24.7,00.0,35.1,28.1,08.7,0000.0,0010.91,0004.17,0003.54
2022-10-30 05:59:00,,0829.3,4.99,0.00,26.3,24.7,00.0,35.1,28.1,08.7,0000.0,0010.77,0004.14,0003.53
